When you browse on this site, cookies collect data to enhance your experience and personalize the content and advertising you see.
Visit our Privacy Policy to learn more. By continuing to use the site, you agree to this use of cookies and data.
  • In Hungary
  • List of Countries
  • For 7 days
  • Water Temperature
  • Weather Map
  • News
  • Weather Widgets
  • user-avatar
    Login

    Hourly Weather Lubin

    Today, 20 September, Friday

    Time Temperature Precipitation Wind Pressure Humidity
    00:00 +10°C° 0 mm 4 mps 765 mmHg 75%
    01:00 +10°C° 0 mm 4 mps 765 mmHg 77%
    02:00 +8°C° 0 mm 4 mps 765 mmHg 79%
    03:00 +8°C° 0 mm 4 mps 765 mmHg 81%
    04:00 +9°C° 0 mm 3 mps 765 mmHg 83%
    05:00 +8°C° 0 mm 4 mps 765 mmHg 84%
    06:00 +10°C° 0 mm 4 mps 765 mmHg 85%
    07:00 +9°C° 0 mm 5 mps 765 mmHg 86%
    08:00 +10°C° 0 mm 5 mps 765 mmHg 80%
    09:00 +12°C° 0 mm 5 mps 765 mmHg 74%
    10:00 +13°C° 0 mm 5 mps 765 mmHg 69%
    11:00 +13°C° 0 mm 5 mps 765 mmHg 71%
    12:00 +13°C° 0 mm 6 mps 764 mmHg 73%
    13:00 +13°C° 0 mm 6 mps 764 mmHg 75%
    14:00 +13°C° 0 mm 6 mps 764 mmHg 75%
    15:00 +14°C° 0 mm 6 mps 763 mmHg 76%
    16:00 +14°C° 0 mm 6 mps 763 mmHg 76%
    17:00 +14°C° 0 mm 6 mps 763 mmHg 79%
    18:00 +13°C° 0 mm 6 mps 763 mmHg 81%
    19:00 +13°C° 0 mm 5 mps 763 mmHg 83%
    20:00 +13°C° 0 mm 5 mps 763 mmHg 85%
    21:00 +13°C° 0 mm 5 mps 763 mmHg 88%
    22:00 +11°C° 0 mm 6 mps 762 mmHg 90%
    23:00 +11°C° 0 mm 6 mps 762 mmHg 91%

    Tomorrow, 21 September, Saturday

    Time Temperature Precipitation Wind Pressure Humidity
    00:00 +12°C° 0 mm 5 mps 762 mmHg 93%
    01:00 +12°C° 0 mm 5 mps 762 mmHg 94%
    02:00 +12°C° 0 mm 5 mps 762 mmHg 94%
    03:00 +12°C° 0 mm 5 mps 762 mmHg 94%
    04:00 +10°C° 0 mm 5 mps 762 mmHg 94%
    05:00 +12°C° 0 mm 5 mps 761 mmHg 93%
    06:00 +12°C° 0 mm 5 mps 761 mmHg 92%
    07:00 +12°C° 0 mm 5 mps 761 mmHg 91%
    08:00 +13°C° 0 mm 5 mps 761 mmHg 88%
    09:00 +13°C° 0 mm 4 mps 761 mmHg 85%
    10:00 +14°C° 0 mm 4 mps 762 mmHg 81%
    11:00 +15°C° 0 mm 4 mps 761 mmHg 77%
    12:00 +17°C° 0 mm 3 mps 761 mmHg 72%
    13:00 +18°C° 0 mm 3 mps 761 mmHg 68%
    14:00 +18°C° 0 mm 2 mps 761 mmHg 67%
    15:00 +19°C° 0 mm 2 mps 761 mmHg 66%
    16:00 +20°C° 0 mm 1 mps 760 mmHg 65%
    17:00 +19°C° 0 mm 1 mps 760 mmHg 71%
    18:00 +16°C° 0 mm 1 mps 760 mmHg 78%
    19:00 +14°C° 0 mm 0 mps 760 mmHg 84%
    20:00 +15°C° 0 mm 1 mps 760 mmHg 84%
    21:00 +14°C° 0 mm 1 mps 760 mmHg 84%
    22:00 +14°C° 0 mm 1 mps 760 mmHg 85%
    23:00 +14°C° 0 mm 2 mps 760 mmHg 85%

    Day after tomorrow, 22 September, Sunday

    Time Temperature Precipitation Wind Pressure Humidity
    00:00 +14°C° 0 mm 2 mps 760 mmHg 85%
    01:00 +13°C° 0 mm 2 mps 760 mmHg 85%
    02:00 +13°C° 0 mm 2 mps 759 mmHg 85%
    03:00 +13°C° 0 mm 2 mps 759 mmHg 86%
    04:00 +13°C° 0 mm 2 mps 759 mmHg 86%
    05:00 +13°C° 0 mm 2 mps 759 mmHg 84%
    06:00 +13°C° 0 mm 2 mps 759 mmHg 83%
    07:00 +13°C° 0 mm 2 mps 759 mmHg 81%
    08:00 +15°C° 0 mm 2 mps 759 mmHg 74%
    09:00 +17°C° 0 mm 2 mps 758 mmHg 67%
    10:00 +18°C° 0 mm 2 mps 758 mmHg 60%
    11:00 +19°C° 0 mm 2 mps 758 mmHg 57%
    12:00 +20°C° 0 mm 2 mps 758 mmHg 54%
    13:00 +21°C° 0 mm 3 mps 757 mmHg 50%
    14:00 +21°C° 0 mm 3 mps 757 mmHg 51%
    15:00 +21°C° 0 mm 3 mps 756 mmHg 51%
    16:00 +21°C° 0 mm 3 mps 756 mmHg 51%
    17:00 +20°C° 0 mm 3 mps 756 mmHg 56%
    18:00 +18°C° 0 mm 4 mps 755 mmHg 61%
    19:00 +17°C° 0 mm 4 mps 755 mmHg 66%
    20:00 +15°C° 0 mm 4 mps 755 mmHg 68%
    21:00 +15°C° 0 mm 4 mps 755 mmHg 70%
    22:00 +14°C° 0 mm 4 mps 755 mmHg 72%
    23:00 +14°C° 0 mm 4 mps 755 mmHg 71%

    23 September, Monday

    Time Temperature Precipitation Wind Pressure Humidity
    00:00 +13°C° 0 mm 4 mps 754 mmHg 71%
    01:00 +13°C° 0 mm 4 mps 754 mmHg 70%
    02:00 +13°C° 0 mm 4 mps 754 mmHg 69%
    03:00 +12°C° 0 mm 4 mps 754 mmHg 68%
    04:00 +12°C° 0 mm 4 mps 753 mmHg 67%
    05:00 +12°C° 0 mm 4 mps 753 mmHg 68%
    06:00 +12°C° 0 mm 4 mps 753 mmHg 68%
    07:00 +12°C° 0 mm 4 mps 753 mmHg 69%
    08:00 +14°C° 0 mm 4 mps 753 mmHg 65%
    09:00 +17°C° 0 mm 4 mps 753 mmHg 61%
    10:00 +19°C° 0 mm 4 mps 753 mmHg 57%
    11:00 +20°C° 0 mm 4 mps 753 mmHg 55%
    12:00 +21°C° 0 mm 3 mps 753 mmHg 52%
    13:00 +21°C° 0 mm 3 mps 753 mmHg 50%
    14:00 +21°C° 0 mm 4 mps 752 mmHg 52%
    15:00 +21°C° 0 mm 4 mps 752 mmHg 54%
    16:00 +20°C° 0 mm 4 mps 752 mmHg 56%
    17:00 +19°C° 0 mm 4 mps 752 mmHg 63%
    18:00 +18°C° 0 mm 4 mps 753 mmHg 69%
    19:00 +15°C° 0 mm 4 mps 753 mmHg 75%
    20:00 +15°C° 0 mm 4 mps 753 mmHg 75%
    21:00 +14°C° 0 mm 3 mps 753 mmHg 74%
    22:00 +15°C° 0 mm 2 mps 754 mmHg 74%
    23:00 +15°C° 0 mm 2 mps 754 mmHg 74%

    24 September, Tuesday

    Time Temperature Precipitation Wind Pressure Humidity
    00:00 +14°C° 0 mm 2 mps 754 mmHg 74%
    01:00 +14°C° 0 mm 1 mps 754 mmHg 73%
    02:00 +14°C° 0 mm 1 mps 754 mmHg 74%
    03:00 +13°C° 0 mm 1 mps 754 mmHg 75%
    04:00 +13°C° 0 mm 1 mps 754 mmHg 76%
    05:00 +13°C° 0 mm 1 mps 754 mmHg 75%
    06:00 +13°C° 0 mm 1 mps 754 mmHg 75%
    07:00 +14°C° 0 mm 1 mps 755 mmHg 75%
    08:00 +15°C° 0 mm 1 mps 755 mmHg 69%
    09:00 +18°C° 0 mm 1 mps 755 mmHg 64%
    10:00 +19°C° 0 mm 1 mps 756 mmHg 59%
    11:00 +20°C° 0 mm 1 mps 755 mmHg 57%
    12:00 +21°C° 0 mm 1 mps 755 mmHg 54%
    13:00 +22°C° 0 mm 1 mps 755 mmHg 52%
    14:00 +21°C° 0 mm 1 mps 755 mmHg 55%
    15:00 +20°C° 0 mm 2 mps 755 mmHg 58%
    16:00 +19°C° 0 mm 2 mps 755 mmHg 61%
    17:00 +18°C° 0 mm 2 mps 755 mmHg 66%
    18:00 +17°C° 0 mm 2 mps 755 mmHg 71%
    19:00 +16°C° 0 mm 2 mps 755 mmHg 76%
    20:00 +16°C° 0 mm 2 mps 754 mmHg 75%
    21:00 +16°C° 0 mm 2 mps 754 mmHg 74%
    22:00 +16°C° 0 mm 2 mps 754 mmHg 73%
    23:00 +16°C° 0 mm 2 mps 754 mmHg 75%

    25 September, Wednesday

    Time Temperature Precipitation Wind Pressure Humidity
    00:00 +16°C° 0 mm 2 mps 754 mmHg 76%
    01:00 +15°C° 0 mm 2 mps 753 mmHg 78%
    02:00 +15°C° 0 mm 2 mps 753 mmHg 82%
    03:00 +15°C° 0 mm 2 mps 753 mmHg 86%
    04:00 +15°C° 0 mm 2 mps 752 mmHg 90%
    05:00 +15°C° 0 mm 2 mps 752 mmHg 91%
    06:00 +15°C° 0 mm 2 mps 752 mmHg 91%
    07:00 +14°C° 0 mm 3 mps 751 mmHg 91%
    08:00 +16°C° 0 mm 3 mps 751 mmHg 87%
    09:00 +17°C° 0 mm 3 mps 751 mmHg 83%
    10:00 +18°C° 0 mm 3 mps 751 mmHg 78%
    11:00 +17°C° 0.2 mm 3 mps 751 mmHg 78%
    12:00 +17°C° 0.2 mm 3 mps 750 mmHg 78%
    13:00 +17°C° 0.2 mm 3 mps 750 mmHg 78%
    14:00 +17°C° 0.1 mm 3 mps 750 mmHg 81%
    15:00 +16°C° 0.1 mm 3 mps 749 mmHg 83%
    16:00 +16°C° 0.1 mm 2 mps 749 mmHg 85%
    17:00 +15°C° 0 mm 2 mps 749 mmHg 86%
    18:00 +15°C° 0 mm 2 mps 749 mmHg 88%
    19:00 +15°C° 0 mm 2 mps 749 mmHg 89%
    20:00 +15°C° 0 mm 2 mps 749 mmHg 90%
    21:00 +14°C° 0 mm 2 mps 749 mmHg 91%
    22:00 +14°C° 0 mm 2 mps 749 mmHg 92%
    23:00 +14°C° 0 mm 2 mps 749 mmHg 93%
    Show more